Regional Weather Roundup
Issued by NWS

Home | Current Version | Previous Version | Text Only | Print | Product List | Glossary On
Versions: 1 2 3 4 5 6 7 8 9 10 11 12 13 14 15 16 17 18 19 20 21 22 23 24 25 26 27 28 29 30 31 32 33 34 35 36 37 38 39 40 41 42 43 44 45 46 47 48 49 50
131
ASUS45 KSLC 190910
RWRUT

UTAH REGIONAL WEATHER ROUNDUP
NATIONAL WEATHER SERVICE SALT LAKE CITY UT
300 AM MDT THU OCT 19 2017

UTZ001>011-023>025-191000-

NORTHERN UTAH

CITY           SKY/WX    TMP DP  RH WIND       PRES   REMARKS
BRIGHAM CITY   PTCLDY    37  29  72 CALM      30.05F
HILL AFB       CLEAR     49  16  27 E20       30.04F
LOGAN          CLEAR     34  23  64 CALM      30.06F
OGDEN          CLEAR     48  19  31 S9        30.04S
SALT LAKE CITY PTCLDY    45  31  58 E7        30.03F
TOOELE VALLEY  PTCLDY    37  25  60 SE8       30.04F WCI  31
WENDOVER       MOCLDY    40  21  46 CALM      30.04F
WEST JORDAN    PTCLDY    47  26  43 SW8       30.05F

$$

UTZ011>015-024>027-191000-

CENTRAL/NORTHEAST UTAH

CITY           SKY/WX    TMP DP  RH WIND       PRES   REMARKS
PROVO AIRPORT  PTCLDY    40  30  67 CALM      30.07F
MOAB/CANYONLAN MOCLDY    47  16  29 CALM      30.07S
DELTA          MOCLDY    41  28  60 E3        30.06F
PRICE          CLOUDY    49  15  25 CALM      30.12F
ROOSEVELT      CLOUDY    37  25  60 CALM      30.14S
VERNAL         CLOUDY    38  20  48 W5        30.12F WCI  34

$$

UTZ013>016-019>022-027-191000-

SOUTHERN UTAH

CITY           SKY/WX    TMP DP  RH WIND       PRES   REMARKS
BRYCE CANYON   CLOUDY    44  25  47 CALM      30.22F
CEDAR CITY     MOCLDY    47  23  38 SE3       30.08F
MILFORD        MOCLDY    43  14  31 SW7       30.06F
ST GEORGE      LGT RAIN  58  37  45 N9        29.96F
HANKSVILLE     CLOUDY    45  21  39 CALM      30.09S
BLANDING         N/A     51  17  25 N8        30.21S

$$

REGIONAL REPORTS     COLORADO/ARIZONA

CITY           SKY/WX    TMP DP  RH WIND       PRES   REMARKS
CRAIG, CO      CLOUDY    25  18  74 CALM      30.19S
GRAND JUNCTION CLOUDY    48  17  29 SE12      30.11S
RIFLE, CO      CLOUDY    36  19  50 CALM      30.18S
MONTROSE, CO   CLOUDY    40  20  44 SE7       30.19S
CORTEZ, CO     CLOUDY    35  26  69 NE5       30.17S WCI  31
COLORADO CITY  RAIN      54  28  37 SE5       30.09S
PAGE, AZ       MOCLDY    60  27  28 CALM      30.03F
GRAND CANYON   PTCLDY    39  25  57 CALM      30.18S
KINGMAN, AZ    PTCLDY    57  30  35 S3        29.98S
FLAGSTAFF, AZ  PTCLDY    43  28  55 CALM      30.20F

$$

REGIONAL REPORTS    NEVADA/IDAHO/WYOMING

CITY           SKY/WX    TMP DP  RH WIND       PRES   REMARKS
LAS VEGAS, NV  MOCLDY    68  23  18 W5        29.89S
ELY, NY        MOCLDY    36   7  29 S8        30.11F WCI  30
ELKO, NV       CLOUDY    32  15  49 NE5       30.05S WCI  27
POCATELLO, ID  CLOUDY    36  27  69 N8        30.00F WCI  30
BURLEY, ID     CLEAR     50  18  28 S9        29.95F
FORT BRIDGER,    N/A     45   8  22 CALM      30.19F
EVANSTON, WY   CLOUDY    43  12  28 S7        30.16F
ROCK SPRINGS,  CLOUDY    42   9  25 CALM      30.17S
KEMMERER, WY   CLOUDY    30  19  64 N12       30.18F WCI  21

$$




USA.gov is the U.S. government's official web portal to all federal, state and local government web resources and services.